SCP
0 0 0 0 0 1 1 1 1 2 3 7 11 14 14 14 12 12 14 16 16 13 10 9 8 9 9 9 10 11 10 8 7 7 8 9 10 9 8 7 7 7 6 6
0 0 0 0 0 1 1 2 3 3 5 9 13 14 13 12 12 13 15 17 17 14 11 9 9 9 8 8 8 9 8 7 6 7 8 9 10 10 9 8 7 7 7 6
0 0 0 0 1 1 2 3 3 5 7 10 12 12 11 12 14 16 18 20 19 15 10 9 9 8 7 6 7 7 7 7 7 7 7 8 9 10 10 10 9 8 7 7
0 0 0 1 1 1 2 3 4 6 8 10 10 11 11 13 15 17 19 20 18 14 9 8 8 8 7 6 6 7 7 7 8 8 7 7 8 10 11 11 11 10 9 8
0 0 1 1 1 1 2 3 5 7 8 9 9 10 10 11 13 15 16 17 15 11 8 8 8 9 8 8 9 10 9 8 8 9 9 8 8 8 9 11 12 12 11 10
0 0 1 1 2 2 2 4 6 7 8 9 10 9 8 8 9 10 10 11 12 12 10 10 11 11 10 10 12 13 10 8 8 9 10 11 10 9 8 10 13 14 14 13
0 1 1 1 2 2 3 5 7 8 8 9 9 8 8 7 6 7 7 8 10 11 11 11 11 12 11 10 10 10 8 7 7 8 10 13 12 9 8 9 12 15 15 14
1 1 1 2 2 3 4 7 9 9 8 7 6 7 7 6 5 5 7 8 8 9 8 8 9 9 9 7 6 5 5 5 7 8 10 13 11 8 7 8 10 13 13 12
2 2 2 3 3 3 5 7 9 8 6 5 5 6 6 5 4 4 6 7 7 6 4 4 4 5 4 4 4 4 4 5 6 7 9 9 8 5 5 7 8 9 9 9
3 4 4 4 3 4 5 5 6 5 5 5 5 5 5 4 3 3 4 5 5 3 2 1 1 1 1 2 2 3 3 4 5 6 6 6 5 4 4 4 5 5 5 5
4 4 4 4 4 4 4 4 4 4 4 5 5 4 3 2 2 2 2 2 2 1 1 1 1 1 1 1 1 1 2 2 4 4 4 4 3 3 2 2 3 3 3 3
2 3 3 3 3 4 4 5 4 4 4 4 4 3 2 1 1 1 1 1 1 1 1 1 1 1 1 1 1 1 1 1 2 3 4 3 3 2 2 1 1 1 1 1
1 2 2 2 3 4 6 6 5 4 4 3 2 2 1 1 1 0 0 1 1 1 1 1 1 1 1 1 1 1 1 1 1 2 3 3 3 3 2 2 1 0 0 0
1 1 1 2 2 4 7 6 4 4 3 2 2 1 1 1 1 1 1 1 2 2 2 1 1 1 1 1 1 1 1 1 1 1 2 3 3 3 3 2 1 1 0 0
1 2 1 1 2 4 5 4 3 2 2 2 1 1 1 1 1 2 2 3 3 2 1 1 1 1 1 1 1 1 1 0 0 1 2 3 4 4 3 3 2 1 1 1
2 2 1 1 2 2 2 2 1 1 1 1 1 1 1 2 2 3 3 3 2 1 1 1 1 1 1 1 1 1 1 0 0 1 2 3 4 4 3 3 2 2 1 1
2 1 1 1 1 1 1 1 1 1 1 1 1 1 2 3 3 3 2 1 1 1 1 1 0 0 1 1 1 1 1 1 0 1 2 3 4 4 4 3 2 2 2 1
1 1 1 1 1 1 1 1 1 1 1 1 1 1 2 4 3 2 1 0 0 0 0 0 0 0 0 0 1 1 1 1 1 1 2 3 4 5 5 4 3 2 2 2
1 1 0 1 1 1 1 1 1 0 0 1 1 1 2 3 2 1 0 0 0 0 0 0 0 0 0 0 1 1 1 1 1 1 2 4 5 5 5 4 4 3 3 3
1 0 1 1 1 1 1 1 0 0 0 0 1 1 1 2 1 0 0 0 0 0 0 0 0 0 0 0 1 1 1 1 1 1 2 4 5 6 6 5 4 4 4 3
0 0 1 1 1 1 1 0 0 0 0 0 0 1 1 0 0 0 0 0 0 0 0 0 0 1 1 1 1 1 1 1 1 2 4 5 6 7 6 6 5 5 4 3
0 0 0 1 0 0 0 0 0 0 0 0 0 0 0 0 0 0 0 0 0 0 0 0 1 1 2 2 2 3 3 3 3 4 6 7 7 6 6 6 6 5 3 2
0 0 0 0 0 0 0 0 0 0 0 0 0 0 0 0 0 0 0 0 0 0 0 0 0 1 1 2 3 3 3 4 4 5 6 6 6 5 5 5 4 3 2 1
0 0 0 0 0 0 0 0 0 0 0 0 0 0 0 0 0 0 0 0 0 0 0 0 0 0 0 1 1 2 2 2 2 2 3 3 3 3 3 2 2 1 1 1
0 0 0 0 0 0 0 0 0 0 0 0 0 0 0 0 0 0 0 0 0 0 0 0 0 0 0 0 0 0 0 0 0 0 0 1 1 1 1 1 1 0 0 1
0 0 0 0 0 0 0 0 0 0 0 0 0 0 0 0 0 0 0 0 0 0 0 0 0 0 0 0 0 0 0 0 0 0 0 0 0 0 0 0 0 1 1 1
0 0 0 0 0 0 0 0 0 0 0 0 0 0 0 0 0 0 0 0 0 0 0 0 0 0 0 0 0 0 0 0 0 0 0 0 0 0 0 0 0 1 1 1
Wind_Speed
4 4 2 2 4 3 1 4 6 5 5 5 4 5 6 7 8 8 8 7 7 6 5 5 3 2 2 3 4 4 5 5 6 6 5 5 5 5 5 5 5 5 4 4
3 3 3 4 5 2 1 1 4 4 1 3 2 4 5 6 9 9 8 7 6 6 5 4 2 1 1 1 3 4 4 5 4 4 4 5 5 5 4 5 4 4 4 5
2 4 3 3 3 0 2 2 4 4 4 3 4 5 6 6 7 8 8 8 7 7 5 4 3 3 1 0 2 3 4 3 3 4 4 5 5 4 4 5 4 4 5 5
1 3 2 6 2 3 6 5 4 3 3 3 4 4 4 5 8 7 7 7 6 6 5 3 3 3 2 1 1 1 2 3 3 4 3 4 5 5 5 4 4 5 5 5
3 1 4 4 3 1 4 3 4 4 5 6 6 8 6 5 4 5 5 5 5 5 5 4 3 3 4 3 2 2 1 2 3 4 4 4 4 4 4 4 4 4 4 4
3 3 3 4 5 1 6 2 4 3 5 6 6 4 1 2 4 5 5 3 3 3 4 4 2 3 4 3 2 1 2 3 2 3 4 5 5 4 3 3 3 3 3 3
3 3 4 5 7 4 3 4 1 3 4 4 3 4 3 2 4 4 4 3 3 3 3 2 2 4 3 2 1 2 2 2 2 2 3 3 3 2 2 2 2 2 2 1
2 2 5 6 4 3 3 2 3 3 3 4 4 5 5 4 3 3 3 4 4 3 2 1 2 3 3 1 1 1 2 2 2 2 1 1 2 2 2 3 3 3 2 2
4 5 4 1 2 1 3 3 2 3 3 5 5 4 3 3 2 2 2 2 2 3 2 1 1 3 2 1 2 3 2 1 1 1 1 2 2 2 1 2 2 2 3 3
2 1 1 3 4 4 4 3 2 3 3 4 4 4 3 2 1 1 1 1 1 2 2 1 1 1 1 1 1 1 1 1 0 1 0 1 1 2 2 2 2 3 3 3
1 1 3 4 4 2 3 3 3 1 1 2 3 2 2 2 2 1 1 1 1 1 2 1 1 0 0 1 0 1 2 2 1 0 1 1 0 1 1 1 2 3 3 3
2 2 2 2 2 2 3 3 2 1 1 1 3 3 2 1 1 1 1 1 1 1 1 1 1 0 1 1 1 1 1 1 1 0 1 1 2 1 3 1 1 1 3 3
3 2 2 2 1 1 1 2 2 2 1 1 1 2 2 1 1 0 0 1 1 1 1 1 0 1 2 1 0 0 1 1 1 1 1 1 2 2 1 2 2 2 0 2
1 2 1 1 1 1 1 2 2 3 3 1 1 1 1 1 0 0 1 1 1 1 1 1 0 1 2 1 0 0 1 1 1 1 2 2 2 2 2 2 1 0 1 1
1 2 3 2 0 1 1 1 2 2 2 2 1 1 1 1 0 1 1 0 2 2 1 1 1 2 2 1 0 0 1 1 1 1 1 2 2 2 2 2 2 1 0 1
2 1 2 2 1 0 1 2 1 1 1 1 1 1 1 1 1 1 1 1 2 1 0 1 1 2 2 1 1 1 1 1 1 1 1 1 2 2 2 2 2 2 1 1
2 2 1 0 0 0 1 0 0 0 1 1 0 1 2 3 3 2 2 1 2 1 0 0 1 2 1 0 0 1 1 1 1 0 1 1 2 3 3 3 2 2 2 2
3 3 3 2 1 0 1 2 2 2 2 1 1 2 3 3 2 1 1 1 2 2 2 1 1 1 1 1 0 1 1 1 1 1 1 1 2 2 2 2 3 2 1 2
3 3 3 2 2 2 2 2 2 2 2 3 3 3 2 2 2 2 2 2 2 1 3 3 3 2 2 2 2 0 0 0 1 1 0 1 1 1 2 2 2 2 2 2
3 3 3 3 4 4 3 2 2 2 2 3 4 4 3 3 3 3 3 3 1 1 2 2 3 2 2 2 2 0 0 0 0 1 0 1 1 1 2 2 2 2 2 2
2 3 4 4 4 3 3 3 3 3 2 3 3 3 2 2 3 3 3 3 4 3 2 3 2 2 2 2 2 1 1 1 1 0 0 0 1 1 1 2 2 2 2 2
2 3 3 4 4 3 2 2 3 3 3 3 3 3 3 3 3 3 2 1 2 2 2 2 2 3 4 3 2 2 2 2 1 1 0 1 1 1 1 2 2 2 2 2
2 3 3 3 3 2 2 2 2 2 2 2 2 2 2 1 1 1 1 2 1 2 2 2 3 5 6 4 3 3 2 2 2 1 1 1 1 1 1 2 2 2 2 2
3 3 3 2 3 3 3 1 1 1 2 1 1 1 2 1 0 1 1 1 0 0 1 2 4 5 5 3 3 2 2 2 2 2 2 2 1 1 1 1 2 2 2 3
3 3 3 3 3 1 1 1 2 1 1 1 1 1 0 1 1 1 1 1 1 0 1 2 3 4 3 2 2 2 2 2 2 2 1 2 1 1 1 1 1 2 2 2
3 2 1 1 1 1 1 1 1 1 1 1 1 1 1 0 0 0 0 0 1 0 1 1 1 2 2 2 1 1 1 1 2 1 1 1 1 2 1 1 2 2 2 2
2 2 1 1 1 0 1 1 1 1 1 2 1 0 1 0 0 0 0 0 0 0 1 1 1 1 1 1 1 1 2 1 1 1 1 1 1 1 1 1 1 2 2 2
Wind_Direction
214 236 269 300 304 311 168 190 183 204 182 213 201 158 143 130 122 118 120 121 117 116 113 108 108 123 164 182 174 173 175 183 197 195 186 187 191 191 189 189 192 192 192 194
334 323 342 335 326 324 353 117 145 127 184 230 167 117 116 124 126 126 127 124 125 122 117 113 127 139 170 174 173 156 160 196 201 188 183 189 196 193 189 193 191 188 196 196
287 311 14 321 306 8 52 41 148 172 210 170 118 124 139 129 121 131 135 135 136 138 140 150 165 149 121 243 133 141 159 173 178 184 193 197 193 192 199 202 194 195 204 202
159 40 232 241 280 106 93 52 57 93 111 121 131 119 103 117 126 130 133 138 143 144 145 155 164 138 127 105 106 123 167 184 186 180 180 193 192 195 206 205 203 201 202 203
121 176 268 300 330 334 113 35 17 97 99 91 99 73 45 44 85 111 122 133 143 147 145 150 151 142 132 129 145 158 209 225 209 194 192 193 198 202 207 204 207 207 200 197
131 152 228 265 299 285 100 53 336 95 118 114 95 95 213 54 71 76 75 85 107 121 120 119 116 109 117 126 122 185 220 238 224 205 196 197 201 202 200 198 207 204 206 200
159 195 249 288 315 27 106 218 246 95 104 97 99 160 165 93 75 86 86 76 81 84 93 114 115 104 104 123 176 263 261 249 230 215 209 200 191 189 185 190 187 183 182 207
140 170 254 315 23 89 195 189 120 95 87 91 106 116 114 97 82 77 67 64 79 92 76 75 98 99 88 31 305 315 315 283 250 226 217 179 162 175 178 178 174 172 163 193
177 201 234 352 95 122 137 112 98 91 88 103 104 115 116 117 126 111 92 68 85 113 109 47 81 100 85 346 351 360 347 302 301 302 190 189 167 165 166 168 181 191 181 191
55 357 354 43 60 54 71 87 82 95 107 117 136 138 125 118 98 88 111 132 121 114 114 86 34 80 111 302 339 337 321 313 259 196 275 224 172 161 152 176 191 184 189 205
50 324 9 18 24 34 42 58 75 52 84 121 138 137 140 147 162 176 178 146 122 134 146 167 194 219 277 330 350 331 328 328 303 228 167 134 83 102 156 208 207 192 199 189
219 235 169 258 304 5 43 38 64 86 48 146 156 164 151 158 173 178 184 152 144 166 183 191 186 302 328 333 352 359 328 328 320 242 174 167 154 82 48 54 48 167 185 184
192 194 172 231 288 334 47 33 27 53 29 246 157 158 157 157 186 150 350 189 187 198 209 197 181 302 308 327 23 105 255 271 287 231 188 185 183 165 149 27 33 38 102 189
217 123 88 266 266 320 10 35 56 63 43 58 137 145 133 108 82 230 251 234 176 123 138 143 128 294 292 295 312 247 263 270 243 221 186 190 193 187 176 172 177 323 331 270
256 162 183 193 97 349 341 51 69 65 46 24 40 78 86 69 345 277 268 114 85 80 70 71 44 311 313 327 5 266 256 264 252 225 194 187 191 184 179 178 179 176 117 9
221 159 137 128 144 7 19 39 53 50 64 51 33 58 74 89 84 30 20 63 87 70 37 67 353 306 323 343 336 309 287 276 276 227 212 202 187 172 173 176 176 173 177 187
146 143 132 123 231 336 15 333 313 319 10 28 58 90 81 73 61 47 30 40 79 77 13 9 283 296 320 33 29 305 308 325 336 290 224 205 182 171 171 173 175 175 186 185
159 156 150 154 162 61 14 26 36 52 77 91 77 82 88 84 73 45 16 41 61 39 7 332 312 338 15 26 348 290 300 302 283 252 229 190 180 175 174 174 174 171 166 158
94 92 107 121 118 97 81 58 55 63 70 75 72 69 72 77 83 79 69 77 77 33 336 342 358 7 344 335 343 309 352 326 315 300 236 165 158 163 169 176 183 180 170 163
87 87 94 90 82 82 77 66 71 61 61 72 73 73 68 63 65 67 64 54 9 302 316 348 1 357 338 330 343 27 72 284 284 299 296 166 169 179 178 174 170 161 158 162
97 93 92 87 80 72 70 76 86 79 66 82 92 92 81 65 69 74 66 30 337 344 1 2 358 340 332 334 355 24 46 45 38 10 158 157 156 158 153 150 150 150 153 156
93 96 91 89 92 80 62 66 83 87 79 79 87 90 82 67 59 53 44 10 313 349 12 13 4 7 11 20 52 67 64 56 49 45 59 103 129 145 148 144 145 150 154 161
104 106 99 96 100 92 69 74 88 91 87 91 93 93 105 120 127 114 358 315 332 19 29 12 12 23 26 38 51 62 63 60 50 46 56 72 88 109 132 142 149 148 147 149
110 108 104 100 93 90 83 74 80 85 93 103 106 120 125 111 13 271 212 249 298 21 15 353 16 28 35 48 53 52 50 49 48 46 50 61 75 82 106 134 144 150 147 143
117 110 103 99 95 104 134 97 67 73 86 74 51 56 125 157 176 247 260 239 247 17 337 349 15 30 42 50 53 43 40 40 43 44 58 70 73 74 72 103 132 139 142 144
98 101 110 133 158 172 155 127 130 147 118 76 14 357 2 8 72 49 22 332 325 352 349 341 3 25 35 36 34 35 39 32 34 29 36 63 66 68 69 84 115 130 138 145
81 81 78 53 8 19 134 126 126 129 139 142 144 355 10 14 42 53 66 346 8 21 347 343 353 1 20 35 39 44 46 39 30 20 35 61 69 69 73 95 121 131 139 146